Location: Trementina
(35.4589°N, 104.4243°W)
Time: 02:42:56
(UTC+00:00)

Hubble Space Telescope - Visible Passes

Search period start: 07 December 2022 00:00
Search period end: 17 December 2022 00:00
Orbit: 530 x 534 km, 28.5° (Epoch: 06 December)

Date Brightness Start Highest point End Pass type
(mag) Time Alt. Az. Time Alt. Az. Time Alt. Az.
07 Dec 3.5 11:36:07 11° S 11:37:07 12° SSE 11:38:33 10° SE visible
07 Dec 2.7 13:14:11 10° SW 13:17:33 25° S 13:20:56 10° ESE visible
08 Dec 3.4 11:24:38 14° SSE 11:24:38 14° SSE 11:26:29 10° SE visible
08 Dec 2.5 13:01:22 10° SW 13:04:51 27° S 13:08:19 10° ESE visible
09 Dec 3.6 11:13:02 14° SE 11:13:02 14° SE 11:14:10 10° ESE visible
09 Dec 2.4 12:48:35 10° SW 12:52:07 28° S 12:55:40 10° ESE visible
10 Dec 3.9 11:01:19 12° ESE 11:01:19 12° ESE 11:01:43 10° ESE visible
10 Dec 2.3 12:36:32 14° SW 12:39:24 30° S 12:42:59 10° ESE visible
11 Dec 2.2 12:24:45 20° SW 12:26:40 30° S 12:30:17 10° ESE visible
12 Dec 2.1 12:12:53 26° SSW 12:13:57 30° S 12:17:33 10° ESE visible
13 Dec 2.0 12:01:00 30° S 12:01:12 30° S 12:04:48 10° ESE visible
14 Dec 2.3 11:49:04 27° SSE 11:49:04 27° SSE 11:52:01 10° SE visible
14 Dec 3.0 13:26:22 10° WSW 13:28:59 16° SSW 13:31:36 10° SSE visible
15 Dec 2.8 11:37:08 22° SSE 11:37:08 22° SSE 11:39:12 10° SE visible
15 Dec 3.1 13:13:59 10° SW 13:16:12 14° SSW 13:18:24 10° SSE visible
16 Dec 3.3 11:25:11 16° SE 11:25:11 16° SE 11:26:21 10° SE visible
16 Dec 3.2 13:01:49 10° SW 13:03:24 12° SSW 13:04:58 10° S visible
